When you browse on this site, cookies collect data to enhance your experience and personalize the content and advertising you see.
Visit our Privacy Policy to learn more. By continuing to use the site, you agree to this use of cookies and data.
  • In United Kingdom
  • List of Countries
  • For 7 days
  • Water Temperature
  • Weather Map
  • Weather Widgets
  • user-avatar
    Login

    Hourly Weather Kepeczki

    Today, 25 February, Tuesday

    Time Temperature Precipitation Wind Pressure Humidity
    00:00 +1°C° 0.1 mm 4 mps 747 mmHg 83%
    01:00 +1°C° 0 mm 4 mps 746 mmHg 82%
    02:00 +1°C° 1.1 mm 4 mps 745 mmHg 87%
    03:00 0°C° 1.1 mm 5 mps 744 mmHg 91%
    04:00 0°C° 1.1 mm 5 mps 743 mmHg 96%
    05:00 0°C° 0.5 mm 5 mps 742 mmHg 95%
    06:00 +1°C° 0.5 mm 5 mps 742 mmHg 94%
    07:00 +1°C° 0 mm 4 mps 741 mmHg 92%
    08:00 +3°C° 0.1 mm 4 mps 741 mmHg 92%
    09:00 +3°C° 0.1 mm 5 mps 741 mmHg 92%
    10:00 +5°C° 0.1 mm 5 mps 740 mmHg 91%
    11:00 +5°C° 0.1 mm 6 mps 740 mmHg 89%
    12:00 +7°C° 0.1 mm 6 mps 740 mmHg 87%
    13:00 +8°C° 0 mm 5 mps 739 mmHg 84%
    14:00 +8°C° 0 mm 5 mps 739 mmHg 84%
    15:00 +8°C° 0 mm 5 mps 739 mmHg 84%
    16:00 +8°C° 0 mm 5 mps 738 mmHg 84%
    17:00 +7°C° 0 mm 5 mps 738 mmHg 86%
    18:00 +7°C° 0 mm 5 mps 738 mmHg 88%
    19:00 +6°C° 0 mm 5 mps 737 mmHg 90%
    20:00 +6°C° 0.6 mm 5 mps 737 mmHg 91%
    21:00 +6°C° 0.6 mm 5 mps 737 mmHg 92%
    22:00 +6°C° 0.6 mm 5 mps 736 mmHg 93%
    23:00 +6°C° 0.2 mm 5 mps 736 mmHg 90%

    Tomorrow, 26 February, Wednesday

    Time Temperature Precipitation Wind Pressure Humidity
    00:00 +6°C° 0.2 mm 4 mps 737 mmHg 88%
    01:00 +5°C° 0.2 mm 4 mps 737 mmHg 86%
    02:00 +5°C° 0 mm 3 mps 736 mmHg 86%
    03:00 +4°C° 0 mm 3 mps 736 mmHg 87%
    04:00 +4°C° 0 mm 2 mps 735 mmHg 88%
    05:00 +4°C° 0 mm 2 mps 735 mmHg 89%
    06:00 +4°C° 0 mm 2 mps 735 mmHg 91%
    07:00 +4°C° 0 mm 2 mps 735 mmHg 93%
    08:00 +4°C° 0 mm 3 mps 734 mmHg 86%
    09:00 +5°C° 0 mm 4 mps 734 mmHg 79%
    10:00 +6°C° 0 mm 5 mps 734 mmHg 72%
    11:00 +7°C° 0 mm 5 mps 734 mmHg 69%
    12:00 +7°C° 0 mm 5 mps 734 mmHg 65%
    13:00 +7°C° 0 mm 5 mps 734 mmHg 61%
    14:00 +7°C° 0 mm 5 mps 734 mmHg 62%
    15:00 +6°C° 0 mm 5 mps 734 mmHg 62%
    16:00 +6°C° 0 mm 4 mps 734 mmHg 62%
    17:00 +5°C° 0 mm 4 mps 734 mmHg 65%
    18:00 +4°C° 0 mm 3 mps 735 mmHg 69%
    19:00 +5°C° 0 mm 2 mps 735 mmHg 72%
    20:00 +3°C° 0 mm 3 mps 736 mmHg 73%
    21:00 +3°C° 0 mm 3 mps 736 mmHg 73%
    22:00 +1°C° 0 mm 4 mps 736 mmHg 74%
    23:00 +1°C° 0 mm 4 mps 736 mmHg 77%

    Day after tomorrow, 27 February, Thursday

    Time Temperature Precipitation Wind Pressure Humidity
    00:00 0°C° 0 mm 4 mps 737 mmHg 80%
    01:00 0°C° 0 mm 4 mps 737 mmHg 83%
    02:00 -1°C° 0 mm 4 mps 737 mmHg 84%
    03:00 -1°C° 0 mm 4 mps 737 mmHg 86%
    04:00 0°C° 0 mm 3 mps 737 mmHg 88%
    05:00 -1°C° 0 mm 4 mps 737 mmHg 86%
    06:00 -1°C° 0 mm 5 mps 738 mmHg 83%
    07:00 -2°C° 0 mm 6 mps 738 mmHg 80%
    08:00 -2°C° 0 mm 6 mps 739 mmHg 80%
    09:00 -1°C° 0 mm 7 mps 739 mmHg 79%
    10:00 -1°C° 0 mm 7 mps 740 mmHg 79%
    11:00 -1°C° 0.1 mm 7 mps 740 mmHg 75%
    12:00 0°C° 0.1 mm 7 mps 740 mmHg 70%
    13:00 0°C° 0.1 mm 7 mps 740 mmHg 66%
    14:00 0°C° 0 mm 7 mps 740 mmHg 63%
    15:00 +1°C° 0 mm 6 mps 740 mmHg 61%
    16:00 +1°C° 0 mm 6 mps 740 mmHg 59%
    17:00 0°C° 0 mm 5 mps 740 mmHg 64%
    18:00 -1°C° 0 mm 4 mps 740 mmHg 69%
    19:00 +1°C° 0 mm 2 mps 740 mmHg 75%
    20:00 +1°C° 0 mm 2 mps 740 mmHg 77%
    21:00 -1°C° 0 mm 2 mps 740 mmHg 79%
    22:00 -1°C° 0 mm 2 mps 740 mmHg 81%
    23:00 -1°C° 0 mm 2 mps 739 mmHg 80%

    28 February, Friday

    Time Temperature Precipitation Wind Pressure Humidity
    00:00 -1°C° 0 mm 2 mps 739 mmHg 79%
    01:00 +1°C° 0 mm 2 mps 738 mmHg 78%
    02:00 0°C° 0 mm 3 mps 738 mmHg 77%
    03:00 0°C° 0 mm 3 mps 738 mmHg 76%
    04:00 0°C° 0 mm 3 mps 737 mmHg 76%
    05:00 0°C° 0 mm 3 mps 737 mmHg 75%
    06:00 0°C° 0 mm 3 mps 737 mmHg 75%
    07:00 0°C° 0 mm 3 mps 738 mmHg 75%
    08:00 0°C° 0.1 mm 3 mps 738 mmHg 76%
    09:00 +1°C° 0.1 mm 3 mps 739 mmHg 77%
    10:00 +2°C° 0.1 mm 2 mps 739 mmHg 79%
    11:00 +2°C° 0.2 mm 3 mps 740 mmHg 75%
    12:00 +1°C° 0.2 mm 4 mps 741 mmHg 71%
    13:00 +2°C° 0.2 mm 5 mps 742 mmHg 67%
    14:00 +2°C° 0.1 mm 5 mps 742 mmHg 68%
    15:00 +2°C° 0.1 mm 5 mps 743 mmHg 68%
    16:00 +1°C° 0.1 mm 5 mps 744 mmHg 69%
    17:00 +1°C° 0.1 mm 5 mps 745 mmHg 73%
    18:00 0°C° 0.1 mm 4 mps 746 mmHg 77%
    19:00 0°C° 0.1 mm 4 mps 746 mmHg 80%
    20:00 -1°C° 0 mm 4 mps 747 mmHg 84%
    21:00 -1°C° 0 mm 4 mps 747 mmHg 87%
    22:00 -1°C° 0 mm 4 mps 747 mmHg 90%
    23:00 -1°C° 0 mm 4 mps 748 mmHg 90%

    29 February, Saturday

    Time Temperature Precipitation Wind Pressure Humidity
    00:00 -2°C° 0 mm 4 mps 748 mmHg 90%
    01:00 -2°C° 0 mm 4 mps 748 mmHg 89%
    02:00 -1°C° 0 mm 5 mps 748 mmHg 88%
    03:00 -1°C° 0 mm 5 mps 748 mmHg 87%
    04:00 -2°C° 0 mm 6 mps 748 mmHg 85%
    05:00 -1°C° 0 mm 5 mps 748 mmHg 84%
    06:00 -1°C° 0 mm 5 mps 748 mmHg 84%
    07:00 0°C° 0 mm 5 mps 748 mmHg 83%
    08:00 0°C° 0 mm 5 mps 748 mmHg 80%
    09:00 0°C° 0 mm 5 mps 749 mmHg 77%
    10:00 +1°C° 0 mm 5 mps 749 mmHg 75%
    11:00 +1°C° 0 mm 4 mps 749 mmHg 71%
    12:00 +3°C° 0 mm 3 mps 748 mmHg 67%
    13:00 +4°C° 0 mm 3 mps 748 mmHg 64%
    14:00 +4°C° 0 mm 3 mps 748 mmHg 63%
    15:00 +5°C° 0 mm 2 mps 748 mmHg 62%
    16:00 +5°C° 0 mm 2 mps 748 mmHg 61%
    17:00 +3°C° 0 mm 3 mps 747 mmHg 66%
    18:00 +2°C° 0 mm 3 mps 747 mmHg 71%
    19:00 +1°C° 0 mm 3 mps 747 mmHg 76%
    20:00 0°C° 0 mm 4 mps 747 mmHg 76%
    21:00 0°C° 0 mm 4 mps 746 mmHg 77%
    22:00 0°C° 0 mm 5 mps 746 mmHg 78%
    23:00 0°C° 0 mm 5 mps 746 mmHg 78%

    1 March, Sunday

    Time Temperature Precipitation Wind Pressure Humidity
    00:00 0°C° 0 mm 5 mps 745 mmHg 78%
    01:00 0°C° 0 mm 5 mps 745 mmHg 77%
    02:00 0°C° 0 mm 5 mps 744 mmHg 79%
    03:00 0°C° 0 mm 4 mps 744 mmHg 80%
    04:00 0°C° 0 mm 4 mps 744 mmHg 81%
    05:00 0°C° 0 mm 4 mps 743 mmHg 81%
    06:00 0°C° 0 mm 5 mps 743 mmHg 80%
    07:00 +1°C° 0 mm 5 mps 743 mmHg 79%
    08:00 +1°C° 0.3 mm 5 mps 743 mmHg 80%
    09:00 +3°C° 0.3 mm 4 mps 744 mmHg 80%
    10:00 +4°C° 0.3 mm 4 mps 744 mmHg 81%
    11:00 +4°C° 0.6 mm 4 mps 744 mmHg 84%
    12:00 +4°C° 0.6 mm 3 mps 744 mmHg 88%
    13:00 +4°C° 0.6 mm 3 mps 744 mmHg 91%
    14:00 +4°C° 0.9 mm 3 mps 744 mmHg 92%
    15:00 +4°C° 0.9 mm 3 mps 744 mmHg 92%
    16:00 +5°C° 0.9 mm 2 mps 744 mmHg 93%
    17:00 +4°C° 0.1 mm 2 mps 744 mmHg 91%
    18:00 +4°C° 0.1 mm 2 mps 744 mmHg 90%
    19:00 +4°C° 0.1 mm 2 mps 744 mmHg 88%
    20:00 +4°C° 0 mm 2 mps 745 mmHg 90%
    21:00 +2°C° 0 mm 3 mps 745 mmHg 91%
    22:00 +2°C° 0 mm 3 mps 745 mmHg 92%
    23:00 +2°C° 0 mm 3 mps 745 mmHg 92%
    Show more